Location: Taukkyan
(23.1052°N, 94.0030°E)
Time: 07:59:06
(UTC+00:00)

SL-16 R/B - Pass Details

Date: 06 July 2020
Orbit: 842 x 846 km, 71.0° (Epoch: 05 August)

Event Time Altitude Azimuth Distance (km) Brightness Sun altitude
Rises 13:40:50 0° 220° (SW) 3,386 5.4 -14.3°
Reaches altitude 10° 13:43:32 10° 231° (SW) 2,454 4.8 -14.9°
Maximum altitude 13:48:28 31° 292° (WNW) 1,434 4.2 -15.8°
Drops below altitude 10° 13:53:26 10° 354° (N) 2,463 5.2 -16.8°
Sets 13:56:10 0° 4° (N) 3,400 5.8 -17.3°
